Location: Katowice
(50.2611°N, 19.0242°E)
Time: 07:29:29
(UTC+02:00)

Explorer 7 - Pass Details

Date: 25 August 2019
Orbit: 485 x 680 km, 50.3° (Epoch: 14 September)

Event Time Altitude Azimuth Distance (km) Brightness Sun altitude
Rises 15:04:32 0° 285° (WNW) 2,888 10.8 41.3°
Reaches altitude 10° 15:07:09 10° 274° (W) 1,943 10.3 41.0°
Maximum altitude 15:10:53 27° 216° (SW) 1,119 10.2 40.5°
Drops below altitude 10° 15:14:26 10° 158° (SSE) 1,828 9.8 40.1°
Sets 15:16:49 0° 146° (SE) 2,683 10.4 39.8°
